"Pseudo-MPEC" for P22hOPw

Created 2025 Dec 4 15:35:10 UT using Find_Orb

Click here for an explanation of pseudo-MPECs

 
 Astrometry: 
     P22hOPw* C2025 11 26.32843600 28 44.265+20 16 52.14   ~BQ9Z 21.27wXNEOCPF52
     P22hOPw  C2025 11 26.34074700 28 45.509+20 16 26.46   ~BQ9Z 21.51wXNEOCPF52
     P22hOPw  C2025 11 26.35305600 28 46.764+20 16 00.82   ~BQ9Z 21.57wXNEOCPF52
     P22hOPw  C2025 11 26.40794700 28 52.375+20 14 06.32   ~BQHZ 22.00GVNEOCPF52
     P22hOPw  C2025 11 26.40860900 28 52.467+20 14 04.90   ~BQHZ 21.60GVNEOCPF52
     P22hOPw KC2025 11 27.05781200 30 03.496+19 51 49.28   ~BR1o 21.98GVNEOCPV06
     P22hOPw KC2025 11 27.05880800 30 03.600+19 51 47.20   ~BR1o 21.75GVNEOCPV06
     P22hOPw KC2025 11 27.05980000 30 03.719+19 51 45.07   ~BR1o 22.08GVNEOCPV06
     P22hOPw KC2025 11 28.23000600 32 10.331+19 12 21.42   ~BS65 21.73GVNEOCPV06
     P22hOPw KC2025 11 28.23268700 32 10.626+19 12 15.88   ~BS65 21.27GVNEOCPV06
     P22hOPw KC2025 11 28.23536600 32 10.903+19 12 10.62   ~BS65 21.43GVNEOCPV06
     P22hOPw KC2025 11 28.23804600 32 11.198+19 12 05.18   ~BS65 21.62GVNEOCPV06

Station data:
(F52) Pan-STARRS 2, Haleakala  (N20.707382 W156.255910)  US/Hawaii.
   Observers J. Herman, T. Lowe, P. Minguez, A. Schultz, I. Smith. Measurers
   K. Chambers, T. de Boer, J. Fairlamb, H. Gao, M. Huber, C.-C. Lin, E.
   Magnier, Y. Ramanjooloo, R. Wainscoat, R. Weryk. 1.8-m Ritchey-Chrétien +
   CCD.
(V06) Catalina Sky Survey-Kuiper  (N32.416871 W110.732550)  US/Arizona.
   Measurers T. Beuden, V. F. Carvajal, D. Fay, J. B. Fazekas, D. C. Fuls, A.
   R. Gibbs, A. D. Grauer, H. Gröller, J. K. Hogan, R. A. Kowalski, S. M.
   Larson, G. J. Leonard, D. Rankin, R. L. Seaman, F. C. Shelly, K. W.
   Wierzchoś. 1.55-m reflector + CCD.

Orbital elements:  P22hOPw
   Perihelion 2025 Nov 28.341705 +/- 3.04 TT =  8:12:03.3 (JD 2461007.841705)
Epoch 2025 Nov 28.0 TT = JDT 2461007.5   Earth MOID: 0.4670   Ma: 0.0392
M 359.866345171 +/- 1.1             (J2000 ecliptic)             AutoNEOCP
n   0.391140846 +/- 0.0139          Peri.  164.345728 +/- 1.8
a   1.851742531 +/- 0.0438          Node   241.652927 +/- 0.46
e   0.21738361 +/- 0.0126           Incl.   23.054209 +/- 0.54
P   2.520/920.367d         H 20.72  G  0.15   U  9.9
q 1.449204053 +/- 0.012    Q 2.254281010 +/- 0.0764
From 12 observations 2025 Nov. 26-28 (45.8 hr); mean residual 0".10
Residuals in arcseconds: 
251126 F52  .03+  .07+    251126 F52  .18+  .04-    251128 V06  .11-  .08+    
251126 F52  .04-  .00     251127 V06  .20-  .02+    251128 V06  .07+  .07-    
251126 F52  .01+  .01-    251127 V06  .18-  .04-    251128 V06  .00   .06+    
251126 F52  .15-  .01-    251127 V06  .05+  .16-    251128 V06  .18+  .01+    

Ephemerides (geocentric):
Date (UTC) HH   RA             Dec           delta  r     elong  mag " sig PA
---- --------  ------------   ------------  ------ ------ -----  --- --------
2025 12 04 16  00 44 23.482   +15 51 59.61  .65092 1.4498 123.4 22.0 18.7  88
2025 12 04 17  00 44 28.378   +15 50 47.34  .65115 1.4498 123.4 22.0 18.9  88
2025 12 04 18  00 44 33.276   +15 49 35.13  .65139 1.4498 123.4 22.0 19.2  88
2025 12 04 19  00 44 38.176   +15 48 23.00  .65163 1.4498 123.4 22.0 19.4  88
2025 12 04 20  00 44 43.078   +15 47 10.94  .65187 1.4498 123.3 22.0 19.6  88
2025 12 04 21  00 44 47.982   +15 45 58.95  .65211 1.4499 123.3 22.0 19.8  88
2025 12 04 22  00 44 52.887   +15 44 47.04  .65234 1.4499 123.3 22.0 20.0  88
2025 12 04 23  00 44 57.794   +15 43 35.20  .65258 1.4499 123.2 22.0 20.2  88
2025 12 05 00  00 45 02.702   +15 42 23.43  .65282 1.4499 123.2 22.0 20.4  88
2025 12 05 01  00 45 07.613   +15 41 11.73  .65306 1.4499 123.2 22.0 20.6  88
2025 12 05 02  00 45 12.525   +15 40 00.11  .65330 1.4499 123.2 22.0 20.9  88
2025 12 05 03  00 45 17.439   +15 38 48.56  .65354 1.4499 123.1 22.0 21.1  88
2025 12 05 04  00 45 22.355   +15 37 37.09  .65378 1.4499 123.1 22.0 21.3  88
2025 12 05 05  00 45 27.272   +15 36 25.68  .65402 1.4499 123.1 22.0 21.5  88
2025 12 05 06  00 45 32.191   +15 35 14.35  .65426 1.4499 123.0 22.0 21.7  88
2025 12 05 07  00 45 37.112   +15 34 03.10  .65450 1.4499 123.0 22.0 22.0  88
2025 12 05 08  00 45 42.035   +15 32 51.91  .65474 1.4500 123.0 22.0 22.2  88
2025 12 05 09  00 45 46.959   +15 31 40.80  .65499 1.4500 123.0 22.0 22.4  88
2025 12 05 10  00 45 51.885   +15 30 29.76  .65523 1.4500 122.9 22.0 22.6  88
2025 12 05 11  00 45 56.813   +15 29 18.80  .65547 1.4500 122.9 22.0 22.9  88
2025 12 05 12  00 46 01.742   +15 28 07.91  .65571 1.4500 122.9 22.1 23.1  88
2025 12 05 13  00 46 06.673   +15 26 57.09  .65595 1.4500 122.8 22.1 23.3  88
2025 12 05 14  00 46 11.606   +15 25 46.34  .65620 1.4500 122.8 22.1 23.5  88
2025 12 05 15  00 46 16.541   +15 24 35.67  .65644 1.4500 122.8 22.1 23.8  88
2025 12 05 16  00 46 21.477   +15 23 25.07  .65668 1.4500 122.8 22.1 24.0  88
2025 12 05 17  00 46 26.415   +15 22 14.55  .65692 1.4500 122.7 22.1 24.2  88
2025 12 05 18  00 46 31.355   +15 21 04.09  .65717 1.4500 122.7 22.1 24.5  88
2025 12 05 19  00 46 36.296   +15 19 53.71  .65741 1.4501 122.7 22.1 24.7  88
2025 12 05 20  00 46 41.239   +15 18 43.41  .65766 1.4501 122.6 22.1 24.9  88
2025 12 05 21  00 46 46.184   +15 17 33.17  .65790 1.4501 122.6 22.1 25.2  88
2025 12 05 22  00 46 51.130   +15 16 23.01  .65814 1.4501 122.6 22.1 25.4  88
2025 12 05 23  00 46 56.078   +15 15 12.93  .65839 1.4501 122.6 22.1 25.7  88
2025 12 06 00  00 47 01.028   +15 14 02.91  .65863 1.4501 122.5 22.1 25.9  88
2025 12 06 01  00 47 05.979   +15 12 52.97  .65888 1.4501 122.5 22.1 26.1  88
2025 12 06 02  00 47 10.932   +15 11 43.11  .65913 1.4501 122.5 22.1 26.4  88
2025 12 06 03  00 47 15.887   +15 10 33.31  .65937 1.4501 122.4 22.1 26.6  88
2025 12 06 04  00 47 20.843   +15 09 23.59  .65962 1.4501 122.4 22.1 26.9  88
2025 12 06 05  00 47 25.801   +15 08 13.94  .65986 1.4502 122.4 22.1 27.1  88
2025 12 06 06  00 47 30.761   +15 07 04.37  .66011 1.4502 122.4 22.1 27.3  88
2025 12 06 07  00 47 35.722   +15 05 54.87  .66036 1.4502 122.3 22.1 27.6  88
2025 12 06 08  00 47 40.685   +15 04 45.44  .66060 1.4502 122.3 22.1 27.8  88
2025 12 06 09  00 47 45.650   +15 03 36.09  .66085 1.4502 122.3 22.1 28.1  88
2025 12 06 10  00 47 50.616   +15 02 26.81  .66110 1.4502 122.3 22.1 28.3  88
2025 12 06 11  00 47 55.584   +15 01 17.60  .66134 1.4502 122.2 22.1 28.6  88
2025 12 06 12  00 48 00.554   +15 00 08.46  .66159 1.4502 122.2 22.1 28.8  88
2025 12 06 13  00 48 05.525   +14 58 59.40  .66184 1.4502 122.2 22.1 29.1  88
2025 12 06 14  00 48 10.497   +14 57 50.41  .66209 1.4502 122.1 22.1 29.3  88
2025 12 06 15  00 48 15.472   +14 56 41.50  .66234 1.4503 122.1 22.1 29.6  88